Hourly Data Report for October 13, 2015

All times are specified in Local Standard Time (LST). Add 1 hour to adjust for Daylight Saving Time where and when it is observed.

WINNIPEG A CS
MANITOBA

49°55'00.000" N
97°14'58.000" W
238.70 m
502S001
71849
XWG

Download Data

Hourly Data (October 2015)
Hourly Data Report for October 13, 2015
Temp Definition
°C
Dew Point Temp Definition
°C
Rel Hum Definition
%
Wind Dir Definition
10's deg

Wind Spd Definition
km/h
Visibility Definition
km
Stn Press Definition
kPa
Hmdx Definition


Wind Chill Definition


Weather Definition


TIME
00:00 1.5 0.3 92 30 9   98.09     LegendNANA
01:00 1.7 0.3 91 27 10   98.06     LegendNANA
02:00 2.3 1.1 92 28 12   98.09     LegendNANA
03:00 2.4 1.3 93 27 11   98.06     LegendNANA
04:00 2.2 1.3 94 28 10   98.11     LegendNANA
05:00 0.1 -0.4 97 28 9   98.15     LegendNANA
06:00 -0.8 -1.1 98 28 11   98.17   -5 LegendNANA
07:00 -0.9 -1.2 98 27 9   98.22   -4 LegendNANA
08:00 2.0 1.1 93 26 10   98.18     LegendNANA
09:00 5.2 2.4 83 27 13   98.23     LegendNANA
10:00 7.9 3.8 76 26 14   98.22     LegendNANA
11:00 10.0 4.5 69 24 14   98.20     LegendNANA
12:00 11.5 6.0 69 27 15   98.19     LegendNANA
13:00 12.8 6.2 64 24 18   98.12     LegendNANA
14:00 14.8 6.6 58 28 22   98.07     LegendNANA
15:00 15.3 6.6 56 29 22   98.05     LegendNANA
16:00 15.8 6.8 55 28 15   98.02     LegendNANA
17:00 13.6 5.7 59 28 11   98.01     LegendNANA
18:00 9.9 4.2 67 26 9   98.02     LegendNANA
19:00 8.1 4.1 76 26 12   98.05     LegendNANA
20:00 8.8 4.1 72 25 13   98.05     LegendNANA
21:00 9.4 4.2 70 26 15   98.06     LegendNANA
22:00 8.6 3.3 69 25 15   98.04     LegendNANA
23:00 7.2 2.7 73 26 19   98.03     LegendNANA

Notes on Data Quality.

Legend

  • E = Estimated
  • M = Missing
  • NA = Not Available
  • ‡ = Partner data that is not subject to review by the National Climate Archives
Date modified: